Showing default

FORMOSAT7-4/COSMIC2-4, 44350

Orbit data source: Space-Track

FORMOSAT7-4/COSMIC2-4, 44350 is a payload satellite owned by NSPO (TW) in LEO that was launched on Tue, 25 Jun 2019 UTC via an FALCON HEAVY launch vehicle from the Air Force Eastern Test Range (AFETR). Payload-class satellites include a variety of spacecraft equipped with specific instruments for various scientific and technological missions. These include communications satellites like Starlink; space stations such as the ISS; scientific satellites like the Hubble; Earth observation satellites from companies like Planet Labs, Umbra, and HawkEye 360; GPS; miniature CubeSats for education and research; and military/defense satellites.

Not visible in the next 10 days
Identifier
44350, 2019-036M
Orbit
LEO
Last TLE update
16 hours ago
Origin
Manufacturer
SSTL (Astrium)
Mission
Operational Civil Weather
Bus & Motor
SSTL-100, Unknown motor
Mass
278 kg wet, 278 kg dry
Launch date (UTC)
2019-06-25 (6 years ago)
Launch vehicle
FALCON HEAVY
Launch site
Air Force Eastern Test Range (AFETR)
Object type
Payload
Rocket body
Debris
Shape & HBR
Box + 1 Pan, 3 m
Radar Cross Section
2.189 m², Large (>1 m²)

Expand to show TLE details & history

TLE from 16 hours ago
0 FORMOSAT7-4/COSMIC2-4
1 44350U 19036M   25128.68785985  .00006441  00000-0  37173-3 0  9998
2 44350  23.9992 311.2658 0001713 302.0386  57.9951 15.09363365323399
Epoch: 2025-05-08T16:30Z
Definitive object data (Epoch: 2025-05-08T16:30:31.091Z)
Latitude
-0.00001°
Longitude
-163.11853°
Altitude
535.394 km
Speed
7.598 km/s
True Right ascension
20h 45m 03s
True Declination
0° 00' 00"
Sunlit
Object was in daylight at TLE epoch
Visualization TLE readout
Latitude
16.38717°
Longitude
-28.89802°
Altitude
536.515 km
Speed
7.598 km/s
Apparent Right ascension
05h 27m 25s
Apparent Declination
-10° 29' 55"
Sunlit
Object is in daylight
Visualization observer readout
Local Sidereal Time
17:07:45
Azimuth
350.217° N
Elevation
-60.26°
Doppler factor
1
Orbital elements
Apogee altitude
544.124 km
Perigee altitude
541.753 km
Semi-major axis
6,921.076 km
Eccentricity
0.0001713
Inclination
23.9992°
RAAN
311.2658°
Arg. of periapsis
302.0386°
True anomaly
58.01175°
Mean anomaly
57.9951°
Eccentric anomaly
58.00342°
Mean motion
3.76949 °/min
BSTAR
0.00037173
Orbital period
95.5 mins
Loading maneuver chart data...
Loading SW <> Apogee altitude chart data...
Loading historical data...
Loading historical data...
Loading historical data...
Loading historical data...
Loading historical data...
Loading historical data...
Loading historical data...

FORMOSAT7-4/COSMIC2-4 Visibility forecast

Observer location: undefined°, undefined°

FORMOSAT7-4/COSMIC2-4 is not visible in the next 10 days
Span
Click to sort rows by Start time (UTC) header in descending order
Start Az.
Max El. time (UTC)
Max El. Az.
Max El.
End time (UTC)
End Az.
|